Vernon, TX

5:51 PM CDT on May 26, 2018 (GMT -0500)
Vernon

Weather History for KF05 - July, 2014

Change the Weather History Date:

Sunday, July 13, 2014

  Actual Average (KLTS) Record (KLTS)
Temperature  
Mean Temperature 86 °F -  
Max Temperature 102 °F 95 °F 106 °F (2013)
Min Temperature 70 °F 70 °F 62 °F (1999)
Cooling Degree Days 21    
Growing Degree Days 36 (Base 50)    
Moisture  
Dew Point 53 °F    
Average Humidity 32    
Maximum Humidity 56    
Minimum Humidity 16    
Precipitation  
Precipitation 0.00 in - - ()
Sea Level Pressure  
Sea Level Pressure 30.05 in    
Wind  
Wind Speed 8 mph (SSW)    
Max Wind Speed 13 mph    
Max Gust Speed 22 mph    
Visibility 10 miles    
Events      
Averages and records for this station are not official NWS values.
T = Trace of Precipitation, MM = Missing Value Source: NWS Daily Summary

Daily Weather History Graph

Daily Weather History Graph

Search for Another Location

Airport or City:

Astronomy

Jul. 13, 2014 Rise Set
Actual Time 6:35 AM CDT 8:50 PM CDT
Civil Twilight 6:06 AM CDT 9:18 PM CDT
Nautical Twilight 5:31 AM CDT 9:54 PM CDT
Astronomical Twilight 4:53 AM CDT 10:32 PM CDT
Moon 9:47 PM CDT (7/13) 8:01 AM CDT (7/13)
Length of Visible Light 15h 12m
Length of Day
14h 15m
Full, 98% of the Moon is Illuminated
Jul 13
Full
Jul 18
Last Quarter
Jul 26
New
Aug 3
First Quarter
Aug 10
Full

Hourly Weather History & Observations

Time (CDT) Temp. Heat Index Dew Point Humidity Pressure Visibility Wind Dir Wind Speed Gust Speed Precip Events Conditions
12:15 AM 83.7 °F - 50.0 °F 31% 30.06 in 10.0 mi SSE 10.4 mph - N/A   Clear
12:35 AM 82.4 °F - 49.6 °F 32% 30.06 in 10.0 mi SSE 9.2 mph - N/A   Clear
12:55 AM 81.3 °F - 49.8 °F 33% 30.07 in 10.0 mi South 8.1 mph - N/A   Clear
1:15 AM 79.9 °F - 50.2 °F 35% 30.07 in 10.0 mi South 8.1 mph - N/A   Clear
1:35 AM 78.8 °F - 50.5 °F 37% 30.07 in 10.0 mi South 6.9 mph - N/A   Clear
1:55 AM 77.4 °F - 51.1 °F 40% 30.07 in 10.0 mi South 6.9 mph - N/A   Clear
2:15 AM 76.8 °F - 51.1 °F 40% 30.07 in 10.0 mi South 5.8 mph - N/A   Clear
2:35 AM 76.8 °F - 51.3 °F 41% 30.08 in 10.0 mi SSW 5.8 mph - N/A   Clear
2:55 AM 76.8 °F - 51.3 °F 41% 30.08 in 10.0 mi SSW 6.9 mph - N/A   Clear
3:15 AM 77.2 °F - 51.1 °F 40% 30.08 in 10.0 mi South 6.9 mph - N/A   Clear
3:35 AM 76.3 °F - 51.4 °F 42% 30.07 in 10.0 mi South 6.9 mph - N/A   Clear
3:55 AM 74.7 °F - 52.0 °F 45% 30.06 in 10.0 mi South 8.1 mph - N/A   Clear
4:15 AM 74.5 °F - 52.2 °F 46% 30.06 in 10.0 mi SSW 6.9 mph - N/A   Clear
4:35 AM 73.8 °F - 52.2 °F 47% 30.07 in 10.0 mi SW 4.6 mph - N/A   Clear
4:55 AM 72.5 °F - 52.3 °F 49% 30.07 in 10.0 mi SW 8.1 mph - N/A   Clear
5:15 AM 72.7 °F - 52.9 °F 50% 30.07 in 10.0 mi SW 8.1 mph - N/A   Clear
5:35 AM 72.1 °F - 53.2 °F 51% 30.08 in 10.0 mi SW 6.9 mph - N/A   Clear
5:55 AM 71.6 °F - 53.6 °F 53% 30.08 in 10.0 mi SSW 8.1 mph - N/A   Clear
6:15 AM 72.1 °F - 53.4 °F 52% 30.09 in 10.0 mi SW 6.9 mph - N/A   Clear
6:35 AM 72.1 °F - 53.6 °F 52% 30.09 in 10.0 mi SW 6.9 mph - N/A   Clear
6:55 AM 70.9 °F - 53.8 °F 55% 30.10 in 10.0 mi WSW 5.8 mph - N/A   Clear
7:15 AM 70.9 °F - 54.3 °F 56% 30.09 in 10.0 mi SW 4.6 mph - N/A   Clear
7:35 AM 72.7 °F - 54.0 °F 52% 30.10 in 10.0 mi SW 5.8 mph - N/A   Clear
7:55 AM 75.2 °F - 52.9 °F 46% 30.10 in 10.0 mi SW 5.8 mph - N/A   Clear
8:15 AM 77.0 °F - 52.3 °F 42% 30.11 in 10.0 mi WSW 6.9 mph - N/A   Clear
8:35 AM 79.2 °F - 51.6 °F 38% 30.11 in 10.0 mi WSW 6.9 mph - N/A   Clear
8:55 AM 81.3 °F - 52.2 °F 36% 30.12 in 10.0 mi WSW 6.9 mph - N/A   Clear
9:15 AM 83.8 °F 82.4 °F 53.8 °F 35% 30.12 in 10.0 mi West 6.9 mph - N/A   Clear
9:35 AM 85.8 °F 84.5 °F 55.8 °F 36% 30.12 in 10.0 mi West 5.8 mph - N/A   Clear
9:55 AM 88.7 °F 87.5 °F 57.4 °F 35% 30.12 in 10.0 mi West 11.5 mph - N/A   Clear
10:15 AM 89.6 °F 88.4 °F 57.4 °F 34% 30.12 in 10.0 mi West 9.2 mph - N/A   Clear
10:35 AM 90.3 °F 89.0 °F 57.9 °F 33% 30.12 in 10.0 mi West 11.5 mph - N/A   Clear
10:55 AM 92.1 °F 91.4 °F 58.8 °F 33% 30.11 in 10.0 mi WSW 12.7 mph 17.3 mph N/A   Clear
11:15 AM 93.6 °F 92.7 °F 59.0 °F 31% 30.11 in 10.0 mi West 12.7 mph - N/A   Clear
11:35 AM 94.3 °F 93.7 °F 59.2 °F 31% 30.11 in 10.0 mi West 12.7 mph - N/A   Clear
11:55 AM 95.0 °F 94.4 °F 59.0 °F 30% 30.10 in 10.0 mi WSW 12.7 mph 16.1 mph N/A   Clear
12:15 PM 95.5 °F 94.8 °F 58.8 °F 29% 30.09 in 10.0 mi West 11.5 mph 18.4 mph N/A   Clear
12:35 PM 96.4 °F 95.7 °F 58.3 °F 28% 30.09 in 10.0 mi WSW 6.9 mph 16.1 mph N/A   Clear
12:55 PM 96.6 °F 95.6 °F 57.7 °F 27% 30.08 in 10.0 mi WSW 6.9 mph - N/A   Clear
1:15 PM 97.2 °F 96.4 °F 57.6 °F 27% 30.08 in 10.0 mi SSW 9.2 mph 16.1 mph N/A   Clear
1:35 PM 98.1 °F 96.8 °F 56.3 °F 25% 30.07 in 10.0 mi SSW 10.4 mph - N/A   Clear
1:55 PM 98.8 °F 96.6 °F 54.1 °F 22% 30.06 in 10.0 mi South 9.2 mph - N/A   Clear
2:15 PM 99.7 °F 97.4 °F 53.6 °F 21% 30.06 in 10.0 mi SSW 10.4 mph - N/A   Clear
2:35 PM 99.5 °F 97.6 °F 54.0 °F 22% 30.05 in 10.0 mi SW 9.2 mph - N/A   Clear
2:55 PM 100.0 °F 97.9 °F 53.2 °F 21% 30.05 in 10.0 mi SSW 9.2 mph - N/A   Clear
3:15 PM 100.2 °F 98.2 °F 53.4 °F 21% 30.04 in 10.0 mi South 4.6 mph - N/A   Clear
3:35 PM 100.6 °F 98.2 °F 53.1 °F 20% 30.03 in 10.0 mi WSW 4.6 mph 19.6 mph N/A   Clear
3:55 PM 101.3 °F 99.2 °F 53.1 °F 20% 30.02 in 10.0 mi SW 9.2 mph - N/A   Clear
4:15 PM 101.3 °F 99.2 °F 53.1 °F 20% 30.01 in 10.0 mi South 12.7 mph 21.9 mph N/A   Clear
4:35 PM 101.8 °F 99.9 °F 53.1 °F 20% 29.99 in 10.0 mi WSW 10.4 mph 17.3 mph N/A   Clear
4:55 PM 102.2 °F - 51.1 °F 18% 29.99 in 10.0 mi SW 8.1 mph - N/A   Clear
5:15 PM 102.0 °F - 49.3 °F 17% 29.98 in 10.0 mi WSW 11.5 mph 18.4 mph N/A   Clear
5:35 PM 102.4 °F - 47.8 °F 16% 29.98 in 10.0 mi SW 10.4 mph - N/A   Clear
5:55 PM 102.4 °F - 48.7 °F 16% 29.97 in 10.0 mi SSW 6.9 mph - N/A   Clear
6:15 PM 102.2 °F - 48.6 °F 16% 29.97 in 10.0 mi SSW 6.9 mph - N/A   Clear
6:35 PM 102.2 °F - 47.5 °F 16% 29.97 in 10.0 mi SW 4.6 mph - N/A   Clear
6:55 PM 101.8 °F - 47.5 °F 16% 29.97 in 10.0 mi WSW 9.2 mph - N/A   Clear
7:15 PM 101.5 °F - 49.1 °F 17% 29.97 in 10.0 mi SW 6.9 mph - N/A   Clear
7:35 PM 100.9 °F - 50.0 °F 18% 29.97 in 10.0 mi SW 6.9 mph - N/A   Clear
7:55 PM 100.0 °F - 49.5 °F 18% 29.96 in 10.0 mi SW 6.9 mph - N/A   Clear
8:15 PM 98.4 °F - 49.6 °F 19% 29.96 in 10.0 mi SW 5.8 mph - N/A   Clear
8:35 PM 96.3 °F - 50.9 °F 21% 29.96 in 10.0 mi SW 3.5 mph - N/A   Clear
8:55 PM - - - N/A% 29.96 in - South 5.8 mph - N/A   Unknown
9:15 PM 92.7 °F 90.1 °F 53.1 °F 26% 29.96 in 10.0 mi South 5.8 mph - N/A   Clear
9:35 PM 90.7 °F 88.5 °F 54.3 °F 29% 29.97 in 10.0 mi South 6.9 mph - N/A   Clear
9:55 PM 89.1 °F 87.1 °F 54.7 °F 31% 29.97 in 10.0 mi South 6.9 mph - N/A   Clear
10:15 PM 88.5 °F 86.5 °F 54.5 °F 31% 29.98 in 10.0 mi SSE 5.8 mph - N/A   Clear
10:35 PM 88.0 °F 86.1 °F 54.5 °F 32% 29.99 in 10.0 mi SSE 6.9 mph - N/A   Clear
10:55 PM 87.4 °F 85.5 °F 54.5 °F 32% 30.00 in 10.0 mi SSE 4.6 mph - N/A   Clear
11:15 PM 87.6 °F 85.7 °F 54.7 °F 32% 30.00 in 10.0 mi SSE 3.5 mph - N/A   Clear
11:35 PM 87.4 °F 85.7 °F 55.0 °F 33% 30.00 in 10.0 mi SSE 6.9 mph - N/A   Clear
11:55 PM 87.4 °F 86.1 °F 56.3 °F 35% 30.00 in 10.0 mi SSE 8.1 mph - N/A   Clear